Time,TemperatureF,DewpointF,PressureIn,WindDirection,WindDirectionDegrees,WindSpeedMPH,WindSpeedGustMPH,Humidity,HourlyPrecipIn,Conditions,Clouds,dailyrainin,SoftwareType,DateUTC
2013-10-06 00:09:00,71.5,63.0,29.86,ESE,120,0.0,-999.0,74,-99.99,,,0.00,weatherlink.com 1.10,2013-10-06 04:09:00,
2013-10-06 00:24:00,72.0,63.0,29.85,ESE,113,0.0,-999.0,72,-99.99,,,0.00,weatherlink.com 1.10,2013-10-06 04:24:00,
2013-10-06 00:39:00,72.3,63.0,29.85,ESE,106,0.0,-999.0,72,-99.99,,,0.00,weatherlink.com 1.10,2013-10-06 04:39:00,
2013-10-06 00:54:00,72.1,62.0,29.84,ESE,116,0.0,-999.0,71,-99.99,,,0.00,weatherlink.com 1.10,2013-10-06 04:54:00,
2013-10-06 01:09:00,72.0,63.0,29.84,ESE,114,0.0,-999.0,72,-99.99,,,0.00,weatherlink.com 1.10,2013-10-06 05:09:00,
2013-10-06 01:24:00,71.6,62.0,29.84,ESE,114,0.0,-999.0,72,-99.99,,,0.00,weatherlink.com 1.10,2013-10-06 05:24:00,
2013-10-06 01:39:00,72.3,62.0,29.84,ESE,103,0.0,-999.0,69,-99.99,,,0.00,weatherlink.com 1.10,2013-10-06 05:39:00,
2013-10-06 01:54:00,70.6,62.0,29.84,East,100,0.0,-999.0,75,-99.99,,,0.00,weatherlink.com 1.10,2013-10-06 05:54:00,
2013-10-06 02:09:00,68.8,62.0,29.84,East,100,0.0,-999.0,80,-99.99,,,0.00,weatherlink.com 1.10,2013-10-06 06:09:00,
2013-10-06 02:24:00,69.9,60.0,29.83,SE,143,0.0,-999.0,72,-99.99,,,0.00,weatherlink.com 1.10,2013-10-06 06:24:00,
2013-10-06 02:39:00,72.1,60.0,29.82,ESE,107,0.0,-999.0,66,-99.99,,,0.00,weatherlink.com 1.10,2013-10-06 06:39:00,
2013-10-06 02:54:00,73.0,60.0,29.82,ESE,109,0.0,-999.0,63,-99.99,,,0.00,weatherlink.com 1.10,2013-10-06 06:54:00,
2013-10-06 03:09:00,74.0,59.0,29.82,ESE,117,0.0,-999.0,59,-99.99,,,0.00,weatherlink.com 1.10,2013-10-06 07:09:00,
2013-10-06 03:24:00,74.2,59.0,29.81,SSE,154,0.0,-999.0,59,-99.99,,,0.00,weatherlink.com 1.10,2013-10-06 07:24:00,
2013-10-06 03:39:00,73.7,59.0,29.81,ESE,104,0.0,-999.0,60,-99.99,,,0.00,weatherlink.com 1.10,2013-10-06 07:39:00,
2013-10-06 03:54:00,74.0,58.0,29.80,SSE,160,0.0,-999.0,58,-99.99,,,0.00,weatherlink.com 1.10,2013-10-06 07:54:00,
2013-10-06 04:09:00,74.2,58.0,29.80,ESE,120,0.0,-999.0,58,-99.99,,,0.00,weatherlink.com 1.10,2013-10-06 08:09:00,
2013-10-06 04:25:00,73.9,59.0,29.80,ESE,121,0.0,-999.0,59,-99.99,,,0.00,weatherlink.com 1.10,2013-10-06 08:25:00,
2013-10-06 04:40:00,73.5,58.0,29.80,SE,136,0.0,-999.0,59,-99.99,,,0.00,weatherlink.com 1.10,2013-10-06 08:40:00,
2013-10-06 04:55:00,73.3,58.0,29.80,South,172,0.0,-999.0,59,-99.99,,,0.00,weatherlink.com 1.10,2013-10-06 08:55:00,
2013-10-06 05:10:00,73.5,58.0,29.81,SE,133,0.0,-999.0,59,-99.99,,,0.00,weatherlink.com 1.10,2013-10-06 09:10:00,
2013-10-06 05:25:00,73.7,58.0,29.81,ESE,104,1.0,-999.0,59,-99.99,,,0.00,weatherlink.com 1.10,2013-10-06 09:25:00,
2013-10-06 05:40:00,73.5,58.0,29.81,East,99,0.0,-999.0,59,-99.99,,,0.00,weatherlink.com 1.10,2013-10-06 09:40:00,
2013-10-06 05:55:00,73.2,58.0,29.81,ESE,102,0.0,-999.0,59,-99.99,,,0.00,weatherlink.com 1.10,2013-10-06 09:55:00,
2013-10-06 06:10:00,73.0,58.0,29.81,East,93,0.0,-999.0,60,-99.99,,,0.00,weatherlink.com 1.10,2013-10-06 10:10:00,
2013-10-06 06:25:00,73.2,58.0,29.82,ESE,104,0.0,-999.0,60,-99.99,,,0.00,weatherlink.com 1.10,2013-10-06 10:25:00,
2013-10-06 06:40:00,73.3,58.0,29.82,ESE,112,0.0,-999.0,59,-99.99,,,0.00,weatherlink.com 1.10,2013-10-06 10:40:00,
2013-10-06 06:55:00,73.2,58.0,29.82,ESE,104,0.0,-999.0,60,-99.99,,,0.00,weatherlink.com 1.10,2013-10-06 10:55:00,
2013-10-06 07:10:00,73.0,58.0,29.82,SE,127,1.0,-999.0,60,-99.99,,,0.00,weatherlink.com 1.10,2013-10-06 11:10:00,
2013-10-06 07:25:00,72.7,58.0,29.82,ESE,120,0.0,-999.0,61,-99.99,,,0.00,weatherlink.com 1.10,2013-10-06 11:25:00,
2013-10-06 07:40:00,72.7,58.0,29.82,SE,124,0.0,-999.0,61,-99.99,,,0.00,weatherlink.com 1.10,2013-10-06 11:40:00,
2013-10-06 07:55:00,72.7,58.0,29.82,SE,126,0.0,-999.0,61,-99.99,,,0.00,weatherlink.com 1.10,2013-10-06 11:55:00,
2013-10-06 08:10:00,72.8,58.0,29.82,East,95,0.0,-999.0,61,-99.99,,,0.00,weatherlink.com 1.10,2013-10-06 12:10:00,
2013-10-06 08:25:00,72.7,59.0,29.83,ESE,109,0.0,-999.0,62,-99.99,,,0.00,weatherlink.com 1.10,2013-10-06 12:25:00,
2013-10-06 08:40:00,72.5,59.0,29.84,South,176,0.0,-999.0,62,-99.99,,,0.00,weatherlink.com 1.10,2013-10-06 12:40:00,
2013-10-06 08:55:00,72.3,59.0,29.83,SSE,155,0.0,-999.0,64,-99.99,,,0.00,weatherlink.com 1.10,2013-10-06 12:55:00,
2013-10-06 09:10:00,72.3,59.0,29.83,ESE,102,0.0,-999.0,64,-99.99,,,0.00,weatherlink.com 1.10,2013-10-06 13:10:00,
2013-10-06 09:25:00,72.3,58.0,29.83,ESE,104,0.0,-999.0,62,-99.99,,,0.00,weatherlink.com 1.10,2013-10-06 13:25:00,
2013-10-06 09:40:00,73.2,58.0,29.83,ESE,104,0.0,-999.0,60,-99.99,,,0.00,weatherlink.com 1.10,2013-10-06 13:40:00,
2013-10-06 09:55:00,74.4,58.0,29.82,ESE,112,0.0,-999.0,57,-99.99,,,0.00,weatherlink.com 1.10,2013-10-06 13:55:00,
2013-10-06 10:10:00,76.0,59.0,29.82,SE,126,2.0,-999.0,55,-99.99,,,0.00,weatherlink.com 1.10,2013-10-06 14:10:00,
2013-10-06 10:25:00,76.7,59.0,29.82,ESE,121,2.0,-999.0,54,-99.99,,,0.00,weatherlink.com 1.10,2013-10-06 14:25:00,
2013-10-06 10:40:00,76.5,59.0,29.82,SE,124,0.0,-999.0,55,-99.99,,,0.00,weatherlink.com 1.10,2013-10-06 14:40:00,
2013-10-06 10:55:00,77.4,60.0,29.82,ESE,117,0.0,-999.0,55,-99.99,,,0.00,weatherlink.com 1.10,2013-10-06 14:55:00,
2013-10-06 11:10:00,78.3,60.0,29.82,ESE,114,0.0,-999.0,54,-99.99,,,0.00,weatherlink.com 1.10,2013-10-06 15:10:00,
2013-10-06 11:25:00,79.0,60.0,29.81,ESE,116,0.0,-999.0,53,-99.99,,,0.00,weatherlink.com 1.10,2013-10-06 15:25:00,
2013-10-06 11:40:00,79.6,61.0,29.81,SE,138,0.0,-999.0,53,-99.99,,,0.00,weatherlink.com 1.10,2013-10-06 15:40:00,
2013-10-06 11:55:00,80.3,60.0,29.80,SW,215,4.0,-999.0,51,-99.99,,,0.00,weatherlink.com 1.10,2013-10-06 15:55:00,
2013-10-06 12:10:00,80.7,61.0,29.80,South,184,0.0,-999.0,51,-99.99,,,0.00,weatherlink.com 1.10,2013-10-06 16:10:00,
2013-10-06 12:25:00,80.9,60.0,29.79,SSE,147,0.0,-999.0,50,-99.99,,,0.00,weatherlink.com 1.10,2013-10-06 16:25:00,
2013-10-06 12:40:00,81.8,61.0,29.79,SSW,200,2.0,-999.0,49,-99.99,,,0.00,weatherlink.com 1.10,2013-10-06 16:40:00,
2013-10-06 12:55:00,82.2,60.0,29.78,SE,136,0.0,-999.0,47,-99.99,,,0.00,weatherlink.com 1.10,2013-10-06 16:55:00,
2013-10-06 13:10:00,82.4,60.0,29.78,South,176,0.0,-999.0,46,-99.99,,,0.00,weatherlink.com 1.10,2013-10-06 17:10:00,
2013-10-06 13:25:00,83.4,60.0,29.77,SSW,195,0.0,-999.0,45,-99.99,,,0.00,weatherlink.com 1.10,2013-10-06 17:25:00,
2013-10-06 13:40:00,83.2,59.0,29.76,SSE,167,0.0,-999.0,44,-99.99,,,0.00,weatherlink.com 1.10,2013-10-06 17:40:00,
2013-10-06 13:55:00,83.8,60.0,29.75,SW,217,7.0,-999.0,44,-99.99,,,0.00,weatherlink.com 1.10,2013-10-06 17:55:00,
2013-10-06 14:10:00,84.3,57.0,29.74,SSE,165,0.0,-999.0,40,-99.99,,,0.00,weatherlink.com 1.10,2013-10-06 18:10:00,
2013-10-06 14:25:00,84.9,57.0,29.73,SE,130,3.0,-999.0,38,-99.99,,,0.00,weatherlink.com 1.10,2013-10-06 18:25:00,
2013-10-06 14:40:00,84.9,57.0,29.72,ESE,116,0.0,-999.0,38,-99.99,,,0.00,weatherlink.com 1.10,2013-10-06 18:40:00,
2013-10-06 14:55:00,85.3,57.0,29.71,SSE,154,0.0,-999.0,38,-99.99,,,0.00,weatherlink.com 1.10,2013-10-06 18:55:00,
2013-10-06 15:10:00,85.1,56.0,29.71,SE,133,2.0,-999.0,37,-99.99,,,0.00,weatherlink.com 1.10,2013-10-06 19:10:00,
2013-10-06 15:25:00,85.7,56.0,29.70,SSE,158,0.0,-999.0,36,-99.99,,,0.00,weatherlink.com 1.10,2013-10-06 19:25:00,
2013-10-06 15:41:00,84.7,56.0,29.70,SSW,199,0.0,-999.0,37,-99.99,,,0.00,weatherlink.com 1.10,2013-10-06 19:41:00,
2013-10-06 15:56:00,84.7,57.0,29.69,ESE,119,0.0,-999.0,39,-99.99,,,0.00,weatherlink.com 1.10,2013-10-06 19:56:00,
2013-10-06 16:11:00,84.1,56.0,29.69,South,172,0.0,-999.0,38,-99.99,,,0.00,weatherlink.com 1.10,2013-10-06 20:11:00,
2013-10-06 16:26:00,84.5,58.0,29.68,SSE,167,0.0,-999.0,41,-99.99,,,0.00,weatherlink.com 1.10,2013-10-06 20:26:00,
2013-10-06 16:41:00,84.7,58.0,29.68,South,186,0.0,-999.0,41,-99.99,,,0.00,weatherlink.com 1.10,2013-10-06 20:41:00,
2013-10-06 16:56:00,84.5,58.0,29.67,SSW,198,0.0,-999.0,40,-99.99,,,0.00,weatherlink.com 1.10,2013-10-06 20:56:00,
2013-10-06 17:11:00,84.9,59.0,29.67,SSW,198,0.0,-999.0,41,-99.99,,,0.00,weatherlink.com 1.10,2013-10-06 21:11:00,
2013-10-06 17:26:00,84.5,59.0,29.66,SSW,196,0.0,-999.0,42,-99.99,,,0.00,weatherlink.com 1.10,2013-10-06 21:26:00,
2013-10-06 17:41:00,84.1,60.0,29.66,SSW,196,0.0,-999.0,44,-99.99,,,0.00,weatherlink.com 1.10,2013-10-06 21:41:00,
2013-10-06 17:56:00,81.1,63.0,29.66,SSW,196,0.0,-999.0,54,-99.99,,,0.00,weatherlink.com 1.10,2013-10-06 21:56:00,
2013-10-06 18:11:00,77.7,60.0,29.67,South,184,0.0,-999.0,55,-99.99,,,0.00,weatherlink.com 1.10,2013-10-06 22:11:00,
2013-10-06 18:26:00,76.0,58.0,29.67,SSE,157,0.0,-999.0,54,-99.99,,,0.00,weatherlink.com 1.10,2013-10-06 22:26:00,
2013-10-06 18:41:00,75.3,58.0,29.68,SSE,155,0.0,-999.0,56,-99.99,,,0.00,weatherlink.com 1.10,2013-10-06 22:41:00,
2013-10-06 18:56:00,74.4,57.0,29.67,SSE,155,0.0,-999.0,55,-99.99,,,0.00,weatherlink.com 1.10,2013-10-06 22:56:00,
2013-10-06 19:11:00,74.2,55.0,29.68,ESE,112,0.0,-999.0,51,-99.99,,,0.00,weatherlink.com 1.10,2013-10-06 23:11:00,
2013-10-06 19:26:00,75.3,54.0,29.68,SE,124,0.0,-999.0,47,-99.99,,,0.00,weatherlink.com 1.10,2013-10-06 23:26:00,
2013-10-06 19:41:00,76.0,53.0,29.68,East,97,0.0,-999.0,45,-99.99,,,0.00,weatherlink.com 1.10,2013-10-06 23:41:00,
2013-10-06 19:56:00,75.8,52.0,29.68,ESE,119,0.0,-999.0,44,-99.99,,,0.00,weatherlink.com 1.10,2013-10-06 23:56:00,
2013-10-06 20:11:00,75.4,53.0,29.67,SSE,168,0.0,-999.0,45,-99.99,,,0.00,weatherlink.com 1.10,2013-10-07 00:11:00,
2013-10-06 20:26:00,74.9,53.0,29.67,ESE,109,1.0,-999.0,47,-99.99,,,0.00,weatherlink.com 1.10,2013-10-07 00:26:00,
2013-10-06 20:41:00,75.1,55.0,29.67,ESE,120,0.0,-999.0,49,-99.99,,,0.00,weatherlink.com 1.10,2013-10-07 00:41:00,
2013-10-06 20:56:00,74.9,54.0,29.67,ESE,117,0.0,-999.0,49,-99.99,,,0.00,weatherlink.com 1.10,2013-10-07 00:56:00,
2013-10-06 21:11:00,74.6,55.0,29.67,East,92,3.0,-999.0,51,-99.99,,,0.00,weatherlink.com 1.10,2013-10-07 01:11:00,
2013-10-06 21:26:00,74.2,55.0,29.66,SE,126,0.0,-999.0,52,-99.99,,,0.00,weatherlink.com 1.10,2013-10-07 01:26:00,
2013-10-06 21:41:00,73.9,55.0,29.67,SE,127,0.0,-999.0,52,-99.99,,,0.00,weatherlink.com 1.10,2013-10-07 01:41:00,
2013-10-06 21:56:00,73.7,55.0,29.67,East,96,0.0,-999.0,53,-99.99,,,0.00,weatherlink.com 1.10,2013-10-07 01:56:00,
2013-10-06 22:11:00,73.3,56.0,29.67,East,83,0.0,-999.0,55,-99.99,,,0.00,weatherlink.com 1.10,2013-10-07 02:11:00,
2013-10-06 22:26:00,73.2,56.0,29.66,East,83,0.0,-999.0,55,-99.99,,,0.00,weatherlink.com 1.10,2013-10-07 02:26:00,
2013-10-06 22:41:00,72.8,56.0,29.66,ESE,103,0.0,-999.0,56,-99.99,,,0.00,weatherlink.com 1.10,2013-10-07 02:41:00,
2013-10-06 22:56:00,72.7,56.0,29.65,SE,126,0.0,-999.0,56,-99.99,,,0.00,weatherlink.com 1.10,2013-10-07 02:56:00,
2013-10-06 23:11:00,72.7,56.0,29.65,ESE,114,0.0,-999.0,56,-99.99,,,0.00,weatherlink.com 1.10,2013-10-07 03:11:00,
2013-10-06 23:26:00,72.5,56.0,29.64,SSE,161,0.0,-999.0,57,-99.99,,,0.00,weatherlink.com 1.10,2013-10-07 03:26:00,
2013-10-06 23:41:00,72.1,56.0,29.64,SE,136,0.0,-999.0,58,-99.99,,,0.00,weatherlink.com 1.10,2013-10-07 03:41:00,
2013-10-06 23:56:00,72.0,56.0,29.64,South,181,0.0,-999.0,58,-99.99,,,0.00,weatherlink.com 1.10,2013-10-07 03:56:00,